Location: Hilton Head Island
(32.2163°N, 80.7526°W)
Time: 20:50:24
(UTC-05:00)

Explorer 7 - Pass Details

Date: 16 February 2026
Orbit: 430 x 542 km, 50.2° (Epoch: 5 March)

Event Time Altitude Azimuth Distance (km) Brightness Sun altitude
Rises 23:35:50 0° 297° (WNW) 2,633 - -65.4°
Reaches altitude 10° 23:38:24 10° 281° (W) 1,762 - -65.7°
Maximum altitude 23:41:28 21° 231° (SW) 1,220 - -66.1°
Drops below altitude 10° 23:44:35 10° 181° (S) 1,787 - -66.5°
Sets 23:47:13 0° 165° (SSE) 2,684 - -66.8°
